When you browse on this site, cookies collect data to enhance your experience and personalize the content and advertising you see.
Visit our Privacy Policy to learn more. By continuing to use the site, you agree to this use of cookies and data.
  • En España
  • Lista de países
  • Para 7 días
  • Temperatura del agua
  • El tiempo en el mapa
  • Informadores
  • user-avatar
    Iniciar sesión

    Tiempo cada hora Ovalle

    Hoy, 22 Enero, Miércoles

    Tiempo Temperatura Precipitaciones Viento Presión Humedad
    00:00 +15°C° 0 mm 0 mps 736 mmHg 92%
    01:00 +15°C° 0 mm 0 mps 736 mmHg 94%
    02:00 +15°C° 0 mm 0 mps 736 mmHg 94%
    03:00 +15°C° 0 mm 0 mps 736 mmHg 94%
    04:00 +15°C° 0 mm 0 mps 737 mmHg 94%
    05:00 +18°C° 0 mm 1 mps 737 mmHg 88%
    06:00 +19°C° 0 mm 1 mps 737 mmHg 81%
    07:00 +21°C° 0 mm 1 mps 737 mmHg 75%
    08:00 +23°C° 0 mm 2 mps 737 mmHg 66%
    09:00 +25°C° 0 mm 3 mps 738 mmHg 58%
    10:00 +28°C° 0 mm 3 mps 738 mmHg 49%
    11:00 +28°C° 0 mm 4 mps 738 mmHg 47%
    12:00 +29°C° 0 mm 4 mps 737 mmHg 45%
    13:00 +30°C° 0 mm 5 mps 737 mmHg 43%
    14:00 +29°C° 0 mm 5 mps 737 mmHg 45%
    15:00 +28°C° 0 mm 4 mps 737 mmHg 47%
    16:00 +28°C° 0 mm 4 mps 737 mmHg 48%
    17:00 +26°C° 0 mm 3 mps 737 mmHg 55%
    18:00 +24°C° 0 mm 2 mps 737 mmHg 62%
    19:00 +21°C° 0 mm 2 mps 738 mmHg 68%
    20:00 +20°C° 0 mm 1 mps 738 mmHg 75%
    21:00 +19°C° 0 mm 1 mps 738 mmHg 81%
    22:00 +16°C° 0 mm 0 mps 738 mmHg 87%
    23:00 +16°C° 0 mm 0 mps 738 mmHg 88%

    Mañana, 23 Enero, Jueves

    Tiempo Temperatura Precipitaciones Viento Presión Humedad
    00:00 +16°C° 0 mm 0 mps 738 mmHg 88%
    01:00 +16°C° 0 mm 1 mps 738 mmHg 89%
    02:00 +15°C° 0 mm 0 mps 738 mmHg 91%
    03:00 +15°C° 0 mm 0 mps 738 mmHg 92%
    04:00 +14°C° 0 mm 0 mps 738 mmHg 94%
    05:00 +18°C° 0 mm 1 mps 739 mmHg 88%
    06:00 +19°C° 0 mm 1 mps 739 mmHg 81%
    07:00 +20°C° 0 mm 1 mps 739 mmHg 75%
    08:00 +23°C° 0 mm 2 mps 739 mmHg 66%
    09:00 +25°C° 0 mm 2 mps 739 mmHg 57%
    10:00 +27°C° 0 mm 2 mps 739 mmHg 48%
    11:00 +28°C° 0 mm 3 mps 739 mmHg 44%
    12:00 +30°C° 0 mm 4 mps 739 mmHg 41%
    13:00 +32°C° 0 mm 5 mps 739 mmHg 37%
    14:00 +30°C° 0 mm 5 mps 738 mmHg 39%
    15:00 +29°C° 0 mm 4 mps 738 mmHg 41%
    16:00 +28°C° 0 mm 4 mps 738 mmHg 43%
    17:00 +26°C° 0 mm 3 mps 738 mmHg 49%
    18:00 +24°C° 0 mm 2 mps 738 mmHg 56%
    19:00 +21°C° 0 mm 2 mps 738 mmHg 62%
    20:00 +21°C° 0 mm 1 mps 738 mmHg 68%
    21:00 +20°C° 0 mm 1 mps 738 mmHg 75%
    22:00 +16°C° 0 mm 0 mps 738 mmHg 81%
    23:00 +16°C° 0 mm 0 mps 738 mmHg 82%

    Pasado mañana, 24 Enero, Viernes

    Tiempo Temperatura Precipitaciones Viento Presión Humedad
    00:00 +16°C° 0 mm 0 mps 738 mmHg 84%
    01:00 +15°C° 0 mm 0 mps 738 mmHg 85%
    02:00 +15°C° 0 mm 0 mps 738 mmHg 85%
    03:00 +15°C° 0 mm 0 mps 738 mmHg 85%
    04:00 +15°C° 0 mm 0 mps 738 mmHg 85%
    05:00 +17°C° 0 mm 0 mps 738 mmHg 77%
    06:00 +19°C° 0 mm 0 mps 739 mmHg 70%
    07:00 +22°C° 0 mm 1 mps 739 mmHg 62%
    08:00 +25°C° 0 mm 1 mps 739 mmHg 53%
    09:00 +27°C° 0 mm 2 mps 739 mmHg 45%
    10:00 +29°C° 0 mm 3 mps 740 mmHg 36%
    11:00 +30°C° 0 mm 4 mps 739 mmHg 35%
    12:00 +32°C° 0 mm 5 mps 739 mmHg 33%
    13:00 +33°C° 0 mm 6 mps 739 mmHg 32%
    14:00 +32°C° 0 mm 6 mps 739 mmHg 32%
    15:00 +30°C° 0 mm 5 mps 738 mmHg 33%
    16:00 +30°C° 0 mm 4 mps 738 mmHg 33%
    17:00 +28°C° 0 mm 3 mps 738 mmHg 39%
    18:00 +25°C° 0 mm 2 mps 738 mmHg 45%
    19:00 +23°C° 0 mm 1 mps 738 mmHg 51%
    20:00 +22°C° 0 mm 1 mps 738 mmHg 57%
    21:00 +20°C° 0 mm 1 mps 739 mmHg 63%
    22:00 +17°C° 0 mm 0 mps 739 mmHg 69%
    23:00 +17°C° 0 mm 0 mps 739 mmHg 72%

    25 Enero, Sábado

    Tiempo Temperatura Precipitaciones Viento Presión Humedad
    00:00 +16°C° 0 mm 0 mps 738 mmHg 74%
    01:00 +16°C° 0 mm 0 mps 738 mmHg 76%
    02:00 +16°C° 0 mm 0 mps 738 mmHg 78%
    03:00 +15°C° 0 mm 0 mps 738 mmHg 80%
    04:00 +15°C° 0 mm 0 mps 738 mmHg 83%
    05:00 +17°C° 0 mm 0 mps 738 mmHg 74%
    06:00 +19°C° 0 mm 0 mps 739 mmHg 66%
    07:00 +21°C° 0 mm 0 mps 739 mmHg 57%
    08:00 +25°C° 0 mm 1 mps 739 mmHg 50%
    09:00 +27°C° 0 mm 2 mps 739 mmHg 44%
    10:00 +30°C° 0 mm 3 mps 739 mmHg 37%
    11:00 +32°C° 0 mm 4 mps 739 mmHg 34%
    12:00 +33°C° 0 mm 5 mps 739 mmHg 32%
    13:00 +34°C° 0 mm 6 mps 739 mmHg 30%
    14:00 +33°C° 0 mm 5 mps 739 mmHg 31%
    15:00 +32°C° 0 mm 5 mps 738 mmHg 33%
    16:00 +30°C° 0 mm 4 mps 738 mmHg 35%
    17:00 +28°C° 0 mm 3 mps 738 mmHg 42%
    18:00 +25°C° 0 mm 3 mps 738 mmHg 48%
    19:00 +23°C° 0 mm 2 mps 739 mmHg 55%
    20:00 +22°C° 0 mm 1 mps 739 mmHg 62%
    21:00 +20°C° 0 mm 1 mps 739 mmHg 68%
    22:00 +17°C° 0 mm 0 mps 739 mmHg 75%
    23:00 +16°C° 0 mm 0 mps 739 mmHg 77%

    26 Enero, Domingo

    Tiempo Temperatura Precipitaciones Viento Presión Humedad
    00:00 +16°C° 0 mm 0 mps 738 mmHg 79%
    01:00 +15°C° 0 mm 0 mps 738 mmHg 81%
    02:00 +15°C° 0 mm 0 mps 738 mmHg 82%
    03:00 +15°C° 0 mm 0 mps 738 mmHg 83%
    04:00 +15°C° 0 mm 0 mps 738 mmHg 84%
    05:00 +19°C° 0 mm 1 mps 739 mmHg 75%
    06:00 +21°C° 0 mm 1 mps 739 mmHg 67%
    07:00 +22°C° 0 mm 1 mps 740 mmHg 58%
    08:00 +25°C° 0 mm 2 mps 740 mmHg 51%
    09:00 +27°C° 0 mm 2 mps 740 mmHg 43%
    10:00 +29°C° 0 mm 3 mps 740 mmHg 36%
    11:00 +30°C° 0 mm 4 mps 740 mmHg 34%
    12:00 +32°C° 0 mm 4 mps 740 mmHg 32%
    13:00 +33°C° 0 mm 5 mps 739 mmHg 29%
    14:00 +33°C° 0 mm 5 mps 739 mmHg 30%
    15:00 +32°C° 0 mm 4 mps 739 mmHg 30%
    16:00 +32°C° 0 mm 4 mps 739 mmHg 31%
    17:00 +28°C° 0 mm 3 mps 739 mmHg 37%
    18:00 +25°C° 0 mm 2 mps 739 mmHg 43%
    19:00 +23°C° 0 mm 1 mps 739 mmHg 49%
    20:00 +22°C° 0 mm 1 mps 739 mmHg 55%
    21:00 +20°C° 0 mm 1 mps 739 mmHg 61%
    22:00 +17°C° 0 mm 0 mps 739 mmHg 67%
    23:00 +16°C° 0 mm 0 mps 738 mmHg 70%

    27 Enero, Lunes

    Tiempo Temperatura Precipitaciones Viento Presión Humedad
    00:00 +16°C° 0 mm 0 mps 738 mmHg 73%
    01:00 +15°C° 0 mm 0 mps 738 mmHg 75%
    02:00 +15°C° 0 mm 0 mps 738 mmHg 77%
    03:00 +15°C° 0 mm 0 mps 738 mmHg 79%
    04:00 +14°C° 0 mm 0 mps 738 mmHg 81%
    05:00 +18°C° 0 mm 1 mps 738 mmHg 73%
    06:00 +20°C° 0 mm 1 mps 739 mmHg 66%
    07:00 +22°C° 0 mm 1 mps 739 mmHg 58%
    08:00 +24°C° 0 mm 2 mps 739 mmHg 52%
    09:00 +26°C° 0 mm 2 mps 739 mmHg 45%
    10:00 +29°C° 0 mm 3 mps 740 mmHg 39%
    11:00 +30°C° 0 mm 4 mps 739 mmHg 37%
    12:00 +32°C° 0 mm 4 mps 739 mmHg 35%
    13:00 +33°C° 0 mm 5 mps 739 mmHg 33%
    14:00 +32°C° 0 mm 5 mps 739 mmHg 34%
    15:00 +32°C° 0 mm 4 mps 738 mmHg 35%
    16:00 +30°C° 0 mm 4 mps 738 mmHg 36%
    17:00 +28°C° 0 mm 3 mps 738 mmHg 45%
    18:00 +25°C° 0 mm 2 mps 738 mmHg 54%
    19:00 +22°C° 0 mm 1 mps 738 mmHg 63%
    20:00 +21°C° 0 mm 1 mps 738 mmHg 71%
    21:00 +20°C° 0 mm 1 mps 738 mmHg 78%
    22:00 +16°C° 0 mm 0 mps 738 mmHg 85%
    23:00 +16°C° 0 mm 0 mps 737 mmHg 86%
    Mostrar más